DMSP 5D-2 F13 DEB, 42295

Orbit data source: Space-Track

DMSP 5D-2 F13 DEB, 42295 is space debris in SSO originally from a launch on Fri, 24 Mar 1995 UTC launched from the Air Force Western Test Range (AFWTR). Debris objects in space refer to the collection of defunct objects orbiting the Earth. Examples of debris include non-operational satellites, rocket bodies, and fragments generated from explosions, collisions, or faulty payload assembly.

Loading next visibility...
Identifier
42295, 1995-015HM
Orbit
SSO
Country
Flag of USUS
Related business
Manufacturer
Unknown
Mission
Spacecraft
Bus & Motor
Unknown
Mass
Unknown
Launch date (UTC)
1995-03-24 (31 years ago)
Launch vehicle
Unknown
Launch site
Air Force Western Test Range (AFWTR)
Object type
Payload
Rocket body
Debris
Shape & HBR
Unknown shape, 0.1 m
Radar Cross Section
Small (<0.1 m²)

Expand to show TLE details & history
Last TLE update: 1 day ago

TLE from 1 day ago
0 DMSP 5D-2 F13 DEB
1 42295U 95015HM  26143.93693889  .00047762  00000-0  48326-2 0  9994
2 42295  98.8440 218.4578 0016418 145.5421 214.6862 14.90683017572668
Epoch: 2026-05-23T22:29Z
TLE epoch observation values (Epoch: 2026-05-23T22:29:11.520Z)
Latitude
0.00003°
Longitude
-0.38648°
Altitude
608.234 km
Speed
7.55 km/s
True Right ascension
14h 33m 49s
True Declination
0° 00' 00"
Sunlit
Object was in full shadow at epoch
Visualization orbit readout
Latitude
Unknown
Longitude
Unknown
Altitude
Unknown
Speed
Unknown
Apparent Right ascension
Unknown
Apparent Declination
Unknown
Sunlit
N/A
Visualization observer readout
Local Sidereal Time
09:40:01
Azimuth
Unknown
Elevation
Unknown
Doppler factor
Unknown
Orbital elements
Apogee altitude
604.321 km
Perigee altitude
581.431 km
Semi-major axis
6,971.013 km
Eccentricity
0.00164
Inclination
98.844°
RAAN
218.4578°
Arg. of periapsis
145.5421°
True anomaly
214.57932°
Mean anomaly
214.6862°
Eccentric anomaly
214.63274°
Mean motion
3.72906 °/min
Orbital period
96.54 mins
BSTAR
0.0048326
Loading maneuver chart data...
Computing Atmospheric mass density...

Documentation

Showing up to 5 results
|